Home > Weather > Homberg (Efze) > Past weeks

Flag for Germany Past Weather in Homberg (Efze), Hesse, Germany — Yesterday and Last 2 Weeks

Now
58 °F

Fog.


Feels Like: 58 °F
Forecast: 60 / 69 °F
Wind: 2 mph from Northwest

Location: Fritzlar

Current Time: May 29, 2016 at 7:57:13 AM

Latest Report: May 29, 2016 at 7:00 AM


Visibility: 3 mi

Pressure: 29.77 "Hg

Humidity: 94%

Dew Point: 57 °F

Location of Homberg (Efze)Location

Past Weather in Homberg (Efze) — Graph

°F

Homberg (Efze) Temperature Yesterday

Maximum temperature yesterday: 75 °F (at 4:00 PM)
Minimum temperature yesterday: 52 °F (at 6:00 AM)
Average temperature yesterday: 63 °F

High & Low Weather Summary for the Past Weeks

 TemperatureHumidityPressure
High78 °F (May 22, 4:00 PM)97% (May 20, 4:00 AM)30.13 "Hg (May 20, 4:00 AM)
Low34 °F (May 16, 6:00 AM)40% (May 16, 6:00 PM)29.73 "Hg (May 22, 6:00 PM)
Average55 °F73%29.96 "Hg
* Reported May 14 6:00 AM — May 29 6:00 AM, Homberg (Efze), Weather by CustomWeather, © 2016

Note: Actual official high and low records may vary slightly from our data, if they occured in-between our weather recording intervals... More about our weather records

Advertising

Homberg (Efze) Weather History for the Previous 24 Hours

Scroll right to see more
 ConditionsComfort  
Time TempWeatherWind HumidityBarometerVisibility
6:00 AM
Sun, May 29
57 °FFog.3 mph95%29.78 "Hg4 mi
4:00 AM58 °FOvercast.2 mph96%29.80 "Hg9 mi
3:00 AM58 °FOvercast.2 mph94%29.81 "Hg9 mi
1:00 AM61 °FOvercast.1 mph89%29.85 "Hg9 mi
12:00 AM61 °FLight rain. Overcast.1 mph88%29.87 "Hg9 mi
10:00 PM
Sat, May 28
66 °FOvercast.1 mph66%29.85 "Hg9 mi
9:00 PM67 °FOvercast.3 mph61%29.85 "Hg16 mi
7:00 PM69 °FOvercast.6 mph54%29.85 "Hg17 mi
6:00 PM71 °FOvercast.5 mph59%29.85 "Hg19 mi
4:00 PM75 °FOvercast.3 mph45%29.86 "Hg19 mi
3:00 PM74 °FPartly sunny.2 mph49%29.88 "Hg19 mi
1:00 PM71 °FScattered clouds.2 mph62%29.92 "Hg16 mi
12:00 PM69 °FPassing clouds.3 mph66%29.93 "Hg9 mi
10:00 AM63 °FPartly sunny.2 mph76%29.96 "Hg4 mi
9:00 AM60 °FFog.N/A82%29.97 "Hg3 mi
7:00 AM53 °FFog.2 mph93%29.98 "Hg2 mi
Weather by CustomWeather, © 2016

See weather overviewHow to use our weather pages